Location: Mainz-Finthen
(49.9906°N, 8.1713°E)
Time: 08:34:24
(UTC+00:00)

BEESAT - Pass Details

Date: 06 December 2021
Orbit: 699 x 708 km, 98.6° (Epoch: 21 January)

Event Time Altitude Azimuth Distance (km) Brightness Sun altitude
Rises 06:15:35 0° 167° (SSE) 3,083 ? -8.4°
Reaches altitude 10° 06:17:50 10° 169° (S) 2,171 ? -8.1°
Maximum altitude 06:22:35 77° 256° (WSW) 730 ? -7.4°
Drops below altitude 10° 06:27:24 10° 343° (NNW) 2,193 ? -6.7°
Sets 06:29:41 0° 345° (NNW) 3,117 ? -6.4°
